| time (UTC) | temp F | wind direction | speed MPH | gust MPH | rain 1hr in | rain 24hr in | rain mn in | humidity % | barometer mb |
| 20260508114505 | 52 | 287 | 0.0 | 0.0 | 0.00 | 0.14 | 0.00 | 88 | 1016.2 |
| 20260508113004 | 52 | 287 | 0.0 | 0.0 | 0.00 | 0.14 | 0.00 | 92 | 1015.9 |
| 20260508111502 | 51 | 287 | 0.0 | 0.0 | 0.00 | 0.14 | 0.00 | 92 | 1015.8 |
| 20260508110109 | 51 | 287 | 0.0 | 0.0 | 0.00 | 0.14 | 0.00 | 92 | 1015.7 |
| 20260508104559 | 51 | 287 | 0.0 | 0.0 | 0.00 | 0.15 | 0.00 | 93 | 1015.3 |
| 20260508103104 | 51 | 287 | 0.0 | 0.0 | 0.00 | 0.15 | 0.00 | 92 | 1014.8 |
| 20260508101556 | 51 | 287 | 0.0 | 0.0 | 0.00 | 0.15 | 0.00 | 93 | 1014.7 |
| 20260508100052 | 51 | 287 | 0.0 | 0.0 | 0.00 | 0.15 | 0.00 | 93 | 1014.7 |
| 20260508094551 | 51 | 287 | 0.0 | 0.0 | 0.00 | 0.15 | 0.00 | 93 | 1014.5 |
| 20260508093048 | 51 | 287 | 0.0 | 0.0 | 0.00 | 0.15 | 0.00 | 94 | 1014.3 |
| 20260508091547 | 52 | 287 | 0.0 | 0.0 | 0.00 | 0.15 | 0.00 | 94 | 1014.3 |
| 20260508090048 | 52 | 287 | 0.0 | 0.0 | 0.00 | 0.15 | 0.00 | 94 | 1014.2 |
| 20260508084544 | 52 | 287 | 0.0 | 0.0 | 0.00 | 0.16 | 0.00 | 94 | 1014.2 |
| 20260508083045 | 53 | 287 | 0.0 | 0.0 | 0.00 | 0.16 | 0.00 | 94 | 1014.0 |
| 20260508081539 | 53 | 287 | 0.0 | 0.0 | 0.00 | 0.16 | 0.00 | 95 | 1014.0 |
| 20260508080037 | 54 | 287 | 0.0 | 0.0 | 0.00 | 0.16 | 0.00 | 95 | 1013.8 |
| 20260508074536 | 54 | 287 | 0.0 | 0.0 | 0.00 | 0.16 | 0.00 | 95 | 1013.8 |
| 20260508073040 | 54 | 287 | 0.0 | 0.0 | 0.00 | 0.16 | 0.00 | 95 | 1013.7 |
| 20260508071535 | 54 | 287 | 0.0 | 0.0 | 0.00 | 0.16 | 0.00 | 95 | 1013.6 |
| 20260508070033 | 54 | 287 | 0.0 | 0.0 | 0.00 | 0.16 | 0.00 | 95 | 1013.4 |
| 20260508064539 | 54 | 287 | 0.0 | 0.0 | 0.00 | 0.19 | 0.00 | 94 | 1013.3 |
| 20260508063042 | 54 | 287 | 0.0 | 0.0 | 0.00 | 0.19 | 0.00 | 94 | 1013.2 |
| 20260508061531 | 55 | 287 | 0.0 | 0.0 | 0.00 | 0.19 | 0.00 | 95 | 1013.4 |
| 20260508060028 | 55 | 287 | 0.0 | 0.0 | 0.00 | 0.19 | 0.00 | 95 | 1013.4 |
| 20260508054526 | 55 | 287 | 0.0 | 0.0 | 0.00 | 0.26 | 0.00 | 95 | 1013.4 |
| 20260508053025 | 55 | 287 | 0.0 | 0.0 | 0.00 | 0.26 | 0.00 | 95 | 1013.2 |
| 20260508051523 | 56 | 287 | 0.0 | 0.0 | 0.00 | 0.26 | 0.00 | 95 | 1013.0 |
| 20260508050032 | 56 | 287 | 0.0 | 0.0 | 0.00 | 0.26 | 0.00 | 95 | 1013.0 |
| 20260508044519 | 56 | 287 | 0.0 | 0.0 | 0.00 | 0.26 | 0.00 | 95 | 1012.8 |
| 20260508043017 | 56 | 287 | 0.0 | 0.0 | 0.00 | 0.26 | 0.00 | 95 | 1012.7 |
| 20260508041516 | 56 | 287 | 0.0 | 0.0 | 0.00 | 0.26 | 0.00 | 94 | 1012.7 |
| 20260508040015 | 56 | 287 | 0.0 | 0.0 | 0.00 | 0.26 | 0.00 | 94 | 1012.7 |
| 20260508034514 | 56 | 287 | 0.0 | 0.0 | 0.00 | 0.28 | 0.26 | 94 | 1012.6 |
| 20260508033013 | 56 | 287 | 0.0 | 0.0 | 0.00 | 0.28 | 0.26 | 93 | 1012.5 |
| 20260508031512 | 56 | 287 | 0.0 | 0.0 | 0.00 | 0.28 | 0.26 | 93 | 1012.5 |
| 20260508030009 | 57 | 287 | 0.0 | 0.0 | 0.00 | 0.28 | 0.26 | 93 | 1012.3 |
| 20260508024507 | 57 | 287 | 0.0 | 0.0 | 0.00 | 0.45 | 0.26 | 93 | 1012.1 |
| 20260508023007 | 57 | 287 | 0.0 | 0.0 | 0.00 | 0.45 | 0.26 | 93 | 1012.0 |
| 20260508021504 | 57 | 287 | 0.0 | 0.0 | 0.00 | 0.45 | 0.26 | 92 | 1011.9 |
| 20260508020003 | 57 | 287 | 0.0 | 0.0 | 0.00 | 0.45 | 0.26 | 92 | 1011.7 |
| 20260508014501 | 58 | 287 | 0.0 | 0.0 | 0.00 | 0.61 | 0.26 | 90 | 1011.5 |
| 20260508013102 | 58 | 287 | 0.0 | 0.0 | 0.00 | 0.61 | 0.26 | 90 | 1011.3 |
| 20260508011604 | 58 | 287 | 0.0 | 0.0 | 0.00 | 0.61 | 0.26 | 89 | 1010.8 |
| 20260508010057 | 59 | 287 | 0.0 | 0.0 | 0.00 | 0.61 | 0.26 | 89 | 1010.7 |
| 20260508004555 | 59 | 287 | 0.0 | 9.0 | 0.00 | 0.64 | 0.26 | 89 | 1010.2 |
| 20260508003055 | 59 | 287 | 0.0 | 0.0 | 0.00 | 0.64 | 0.26 | 88 | 1009.8 |
| 20260508001612 | 60 | 287 | 0.0 | 2.0 | 0.00 | 0.64 | 0.26 | 88 | 1009.3 |
| 20260508000051 | 60 | 287 | 1.0 | 9.0 | 0.00 | 0.64 | 0.26 | 88 | 1009.4 |
| 20260507234550 | 61 | 286 | 0.0 | 8.0 | 0.00 | 0.66 | 0.26 | 86 | 1009.2 |
| 20260507233049 | 61 | 284 | 1.0 | 5.0 | 0.00 | 0.66 | 0.26 | 86 | 1009.1 |
| 20260507231546 | 62 | 307 | 1.0 | 8.0 | 0.00 | 0.66 | 0.26 | 85 | 1009.1 |
| 20260507230045 | 62 | 319 | 0.0 | 5.0 | 0.00 | 0.66 | 0.26 | 85 | 1008.6 |
| 20260507224552 | 62 | 327 | 0.0 | 3.0 | 0.00 | 0.66 | 0.26 | 84 | 1008.3 |
| 20260507223045 | 62 | 3 | 1.0 | 4.0 | 0.00 | 0.66 | 0.26 | 85 | 1008.2 |
| 20260507221544 | 62 | 340 | 0.0 | 8.0 | 0.00 | 0.66 | 0.26 | 87 | 1008.0 |
| 20260507220045 | 62 | 280 | 1.0 | 9.0 | 0.00 | 0.66 | 0.26 | 87 | 1007.7 |
| 20260507214544 | 63 | 82 | 0.0 | 10.0 | 0.00 | 0.66 | 0.26 | 86 | 1007.3 |
| 20260507213041 | 64 | 307 | 3.0 | 15.0 | 0.00 | 0.66 | 0.26 | 84 | 1007.6 |
| 20260507211539 | 65 | 107 | 0.0 | 14.0 | 0.00 | 0.66 | 0.26 | 85 | 1006.4 |
| 20260507210038 | 64 | 309 | 0.0 | 5.0 | 0.00 | 0.66 | 0.26 | 85 | 1006.3 |
| 20260507204541 | 65 | 344 | 3.0 | 15.0 | 0.00 | 0.66 | 0.26 | 82 | 1006.4 |
| 20260507203035 | 67 | 324 | 2.0 | 15.0 | 0.00 | 0.66 | 0.26 | 81 | 1006.4 |
| 20260507201534 | 73 | 294 | 3.0 | 5.0 | 0.00 | 0.66 | 0.26 | 79 | 1005.9 |
| 20260507200033 | 71 | 294 | 0.0 | 1.0 | 0.00 | 0.66 | 0.26 | 81 | 1005.6 |
| 20260507194532 | 73 | 294 | 0.0 | 1.0 | 0.00 | 0.66 | 0.26 | 78 | 1005.7 |
| 20260507193032 | 74 | 297 | 0.0 | 1.0 | 0.00 | 0.66 | 0.26 | 73 | 1006.0 |
| 20260507191526 | 74 | 298 | 0.0 | 3.0 | 0.00 | 0.66 | 0.26 | 76 | 1006.1 |
| 20260507190024 | 73 | 298 | 0.0 | 4.0 | 0.00 | 0.66 | 0.26 | 77 | 1006.3 |
| 20260507184519 | 73 | 301 | 0.0 | 3.0 | 0.00 | 0.66 | 0.26 | 79 | 1006.4 |
| 20260507183017 | 72 | 301 | 0.0 | 3.0 | 0.00 | 0.66 | 0.26 | 80 | 1006.6 |
| 20260507181515 | 71 | 302 | 0.0 | 0.0 | 0.00 | 0.66 | 0.26 | 80 | 1006.5 |
| 20260507180011 | 71 | 302 | 0.0 | 2.0 | 0.00 | 0.66 | 0.26 | 83 | 1006.8 |
| 20260507174508 | 71 | 302 | 0.0 | 4.0 | 0.00 | 0.67 | 0.26 | 86 | 1007.1 |
| 20260507173006 | 70 | 305 | 0.0 | 0.0 | 0.00 | 0.67 | 0.26 | 88 | 1007.2 |
| 20260507171509 | 69 | 305 | 0.0 | 2.0 | 0.00 | 0.67 | 0.26 | 90 | 1007.2 |
| 20260507170100 | 68 | 305 | 0.0 | 5.0 | 0.00 | 0.67 | 0.26 | 93 | 1007.7 |
| 20260507164557 | 67 | 305 | 0.0 | 0.0 | 0.00 | 0.77 | 0.26 | 94 | 1007.8 |
| 20260507163057 | 67 | 305 | 0.0 | 0.0 | 0.00 | 0.77 | 0.26 | 95 | 1007.6 |
| 20260507161553 | 66 | 305 | 0.0 | 0.0 | 0.00 | 0.77 | 0.26 | 96 | 1007.6 |
| 20260507160054 | 66 | 305 | 0.0 | 0.0 | 0.01 | 0.77 | 0.26 | 96 | 1007.8 |
| 20260507154550 | 65 | 305 | 0.0 | 0.0 | 0.01 | 0.77 | 0.26 | 96 | 1007.5 |
| 20260507153054 | 65 | 305 | 0.0 | 0.0 | 0.02 | 0.77 | 0.26 | 97 | 1007.2 |
| 20260507151547 | 65 | 305 | 0.0 | 0.0 | 0.02 | 0.77 | 0.26 | 97 | 1007.4 |
| 20260507150045 | 64 | 305 | 0.0 | 0.0 | 0.02 | 0.76 | 0.25 | 97 | 1008.0 |
| 20260507144544 | 64 | 305 | 0.0 | 0.0 | 0.02 | 0.76 | 0.25 | 97 | 1008.1 |
| 20260507143046 | 64 | 305 | 0.0 | 0.0 | 0.02 | 0.75 | 0.24 | 97 | 1008.7 |
| 20260507141543 | 64 | 304 | 0.0 | 0.0 | 0.02 | 0.75 | 0.24 | 97 | 1008.6 |
| 20260507140045 | 64 | 305 | 0.0 | 0.0 | 0.01 | 0.74 | 0.23 | 97 | 1008.2 |
| 20260507134544 | 64 | 305 | 0.0 | 0.0 | 0.02 | 0.74 | 0.23 | 97 | 1008.0 |
| 20260507133044 | 64 | 305 | 0.0 | 0.0 | 0.01 | 0.73 | 0.22 | 97 | 1007.8 |
| 20260507131552 | 64 | 305 | 0.0 | 0.0 | 0.04 | 0.73 | 0.22 | 97 | 1007.5 |
| 20260507130036 | 63 | 305 | 0.0 | 0.0 | 0.07 | 0.73 | 0.22 | 97 | 1007.9 |
| 20260507124536 | 63 | 304 | 0.0 | 0.0 | 0.07 | 0.72 | 0.21 | 97 | 1008.3 |
| 20260507123036 | 63 | 304 | 0.0 | 3.0 | 0.07 | 0.72 | 0.21 | 97 | 1008.7 |
| 20260507121535 | 63 | 304 | 0.0 | 2.0 | 0.04 | 0.69 | 0.18 | 97 | 1009.4 |
| 20260507120040 | 63 | 304 | 2.0 | 8.0 | 0.03 | 0.66 | 0.15 | 97 | 1010.2 |